Regional Weather Roundup
Issued by NWS

Home | Current Version | Previous Version | Graphics & Text | Print | Product List | Glossary On
Versions: 1 2 3 4 5 6 7 8 9 10 11 12 13 14 15 16 17 18 19 20 21 22 23 24 25 26 27 28 29 30 31 32 33 34 35 36 37 38 39 40 41 42 43 44 45 46 47 48 49 50
539
ASUS45 KCYS 182010
RWRWY

WYOMING REGIONAL WEATHER ROUNDUP
NATIONAL WEATHER SERVICE CHEYENNE WY
100 PM MST SAT FEB 18 2017

NOTE:  "FAIR" INDICATES FEW OR NO CLOUDS BELOW 12,000 FEET
WITH NO SIGNIFICANT WEATHER AND/OR OBSTRUCTIONS TO VISIBILITY.

WYZ001-182100-
YELLOWSTONE NATIONAL PARK

CITY           SKY/WX    TMP DP  RH WIND       PRES   REMARKS
LK YELLOWSTONE   N/A     34  31  88 VRB5      29.67F WCI  30
W YELLOWSTONE  NOT AVBL

$$
WYZ002>013-054>058-071-098>099-182100-
NORTHERN WYOMING

CITY           SKY/WX    TMP DP  RH WIND       PRES   REMARKS
JACKSON        PTSUNNY   36  34  93 SW12      29.67F WCI  27
CODY           FAIR      49  28  44 SE12      29.57F
GREYBULL       FAIR      45  33  63 NW3       29.58F
WORLAND        FAIR      43  34  70 SE12      29.57F
SHERIDAN       FAIR      50  30  46 MISG      29.57F
BUFFALO        FAIR      50  30  46 N8        29.59F
GILLETTE       FAIR      58  29  33 SW15G25   29.58F
HULETT         FAIR      59  32  36 SW14      29.60F
NEWCASTLE      FAIR      59  30  33 SW20G33   29.64F

$$
WYZ014>020-022>026-101>103-182100-
CENTRAL WYOMING

CITY           SKY/WX    TMP DP  RH WIND       PRES   REMARKS
BIG PINEY      PTSUNNY   34  30  85 NE5       29.72F WCI  30
PINEDALE       CLOUDY    34  32  93 E8        29.74F WCI  27
DUBOIS         FAIR      39  28  65 NW18G25   29.61F WCI  30
LANDER         FAIR      45  29  53 NE3       29.61F
RIVERTON       FAIR      43  32  65 NE5       29.62F
CASPER         FAIR      56  30  37 SW26G43   29.67R
DOUGLAS        FAIR      61  26  26 SW17      29.67F

$$
WYZ021-027>030-104>119-182100-
SOUTHERN WYOMING

CITY           SKY/WX    TMP DP  RH WIND       PRES   REMARKS
EVANSTON       CLOUDY    39  28  64 E3        29.69F
KEMMERER         N/A     39  30  70 N5        29.70F
FORT BRIDGER   MOCLDY    37  31  76 SE3       29.74S
ROCK SPRINGS   FAIR      41  29  62 S22G29    29.71F
DIXON            N/A     50  29  44 SW12G20   29.79F
RAWLINS        CLOUDY    46  27  47 SW24G33   29.74S
SARATOGA       MOCLDY    52  23  32 W12G17    29.75F
LARAMIE        FAIR      50  23  34 SW15      29.72F
CHEYENNE       FAIR      58  21  24 S13       29.71F
TORRINGTON     FAIR      64  21  19 VRB3      29.66F
PINE BLUFFS    FAIR      61  21  21 S15G23    29.70F

$$




USA.gov is the U.S. government's official web portal to all federal, state and local government web resources and services.